"Sample Date","Sample Time","Sample Value","Units","Flow Rate","Sample Interval","Number Channels","Micron Size 0","Counts/Channel 0","Micron Size 1","Counts/Channel 1","Micron Size 2","Counts/Channel 2","Micron Size 3","Counts/Channel 3","Micron Size 4","Counts/Channel 4","Micron Size 5","Counts/Channel 5","Micron Size 6","Counts/Channel 6","Micron Size 7","Counts/Channel 7","Micron Size 8","Counts/Channel 8","Micron Size 9","Counts/Channel 9","Micron Size 10","Counts/Channel 10","Micron Size 11","Counts/Channel 11","Micron Size 12","Counts/Channel 12","Micron Size 13","Counts/Channel 13","Micron Size 14","Counts/Channel 14","Micron Size 15","Counts/Channel 15","Micron Size 16","Counts/Channel 16","Micron Size 17","Counts/Channel 17","Micron Size 18","Counts/Channel 18","Micron Size 19","Counts/Channel 19","Micron Size 20","Counts/Channel 20","Micron Size 21","Counts/Channel 21","Micron Size 22","Counts/Channel 22","Micron Size 23","Counts/Channel 23","Micron Size 24","Counts/Channel 24","Micron Size 25","Counts/Channel 25","Micron Size 26","Counts/Channel 26","Micron Size 27","Counts/Channel 27","Micron Size 28","Counts/Channel 28","Micron Size 29","Counts/Channel 29","Micron Size 30","Counts/Channel 30","Micron Size 31","Counts/Channel 31"
"04/02/08","14:00:01",22902.000,"cc",28345.836,6.00,6,0.100,20228.000,0.200,1329.000,0.300,496.000,0.500,620.000,1.000,229.000,5.000,0
"04/02/08","14:00:07",22821.000,"cc",28288.904,6.00,6,0.100,20082.000,0.200,1415.000,0.300,501.000,0.500,604.000,1.000,219.000,5.000,0
"04/02/08","14:00:13",23359.000,"cc",28266.600,6.00,6,0.100,20419.000,0.200,1418.000,0.300,601.000,0.500,679.000,1.000,242.000,5.000,0
"04/02/08","14:00:19",22992.000,"cc",28310.443,6.00,6,0.100,20344.000,0.200,1307.000,0.300,525.000,0.500,605.000,1.000,211.000,5.000,0
"04/02/08","14:00:25",22858.000,"cc",28332.713,6.00,6,0.100,20189.000,0.200,1340.000,0.300,520.000,0.500,590.000,1.000,219.000,5.000,0
"04/02/08","14:00:31",22792.000,"cc",28375.356,6.00,6,0.100,20280.000,0.200,1323.000,0.300,435.000,0.500,533.000,1.000,221.000,5.000,0
"04/02/08","14:00:37",23127.000,"cc",28333.363,6.00,6,0.100,20453.000,0.200,1316.000,0.300,543.000,0.500,599.000,1.000,216.000,5.000,0
"04/02/08","14:00:43",23003.000,"cc",28317.457,6.00,6,0.100,20376.000,0.200,1339.000,0.300,539.000,0.500,523.000,1.000,226.000,5.000,0
"04/02/08","14:00:49",23164.000,"cc",28312.357,6.00,6,0.100,20464.000,0.200,1339.000,0.300,539.000,0.500,618.000,1.000,204.000,5.000,0
"04/02/08","14:00:55",23299.000,"cc",28351.598,6.00,6,0.100,20578.000,0.200,1330.000,0.300,522.000,0.500,648.000,1.000,221.000,5.000,0
"04/02/08","14:01:01",23667.000,"cc",28327.705,6.00,6,0.100,20740.000,0.200,1416.000,0.300,578.000,0.500,688.000,1.000,245.000,5.000,0
"04/02/08","14:01:07",23859.000,"cc",28344.451,6.00,6,0.100,20950.000,0.200,1413.000,0.300,608.000,0.500,629.000,1.000,259.000,5.000,0
"04/02/08","14:01:13",23865.000,"cc",28307.930,6.00,6,0.100,20879.000,0.200,1463.000,0.300,596.000,0.500,676.000,1.000,251.000,5.000,0
"04/02/08","14:01:19",23837.000,"cc",28274.166,6.00,6,0.100,20983.000,0.200,1400.000,0.300,578.000,0.500,631.000,1.000,245.000,5.000,0
"04/02/08","14:01:25",23904.000,"cc",28249.266,6.00,6,0.100,21025.000,0.200,1453.000,0.300,567.000,0.500,626.000,1.000,233.000,5.000,0
"04/02/08","14:01:31",23768.000,"cc",28294.977,6.00,6,0.100,20840.000,0.200,1514.000,0.300,534.000,0.500,654.000,1.000,226.000,5.000,0
"04/02/08","14:01:37",23824.000,"cc",28290.063,6.00,6,0.100,20883.000,0.200,1450.000,0.300,593.000,0.500,649.000,1.000,249.000,5.000,0
"04/02/08","14:01:43",24133.000,"cc",28360.625,6.00,6,0.100,21149.000,0.200,1453.000,0.300,631.000,0.500,647.000,1.000,253.000,5.000,0
"04/02/08","14:01:49",24194.000,"cc",28422.506,6.00,6,0.100,21287.000,0.200,1467.000,0.300,553.000,0.500,664.000,1.000,223.000,5.000,0
"04/02/08","14:01:55",23760.000,"cc",28277.369,6.00,6,0.100,20847.000,0.200,1457.000,0.300,552.000,0.500,671.000,1.000,233.000,5.000,0
"04/02/08","14:02:01",23642.000,"cc",28275.281,6.00,6,0.100,20879.000,0.200,1388.000,0.300,560.000,0.500,613.000,1.000,202.000,5.000,0
"04/02/08","14:02:07",23729.000,"cc",28322.440,6.00,6,0.100,20826.000,0.200,1469.000,0.300,518.000,0.500,637.000,1.000,279.000,5.000,0
"04/02/08","14:02:13",23890.000,"cc",28340.104,6.00,6,0.100,20860.000,0.200,1509.000,0.300,588.000,0.500,697.000,1.000,236.000,5.000,0
"04/02/08","14:02:19",24150.000,"cc",28288.148,6.00,6,0.100,21201.000,0.200,1437.000,0.300,580.000,0.500,685.000,1.000,247.000,5.000,0
"04/02/08","14:02:25",24279.000,"cc",28295.563,6.00,6,0.100,21186.000,0.200,1484.000,0.300,660.000,0.500,701.000,1.000,248.000,5.000,0
"04/02/08","14:02:31",23624.000,"cc",28354.803,6.00,6,0.100,20638.000,0.200,1442.000,0.300,638.000,0.500,657.000,1.000,249.000,5.000,0
"04/02/08","14:02:37",23692.000,"cc",28401.957,6.00,6,0.100,20719.000,0.200,1477.000,0.300,591.000,0.500,675.000,1.000,230.000,5.000,0
"04/02/08","14:02:43",23974.000,"cc",28278.588,6.00,6,0.100,20883.000,0.200,1518.000,0.300,612.000,0.500,723.000,1.000,238.000,5.000,0
"04/02/08","14:02:49",24067.000,"cc",28337.352,6.00,6,0.100,21020.000,0.200,1469.000,0.300,610.000,0.500,732.000,1.000,236.000,5.000,0
"04/02/08","14:02:55",24004.000,"cc",28293.082,6.00,6,0.100,21075.000,0.200,1485.000,0.300,562.000,0.500,640.000,1.000,242.000,5.000,0
"04/02/08","14:03:01",23652.000,"cc",28339.766,6.00,6,0.100,20750.000,0.200,1498.000,0.300,536.000,0.500,629.000,1.000,239.000,5.000,0
"04/02/08","14:03:07",23924.000,"cc",28321.885,6.00,6,0.100,20994.000,0.200,1474.000,0.300,546.000,0.500,668.000,1.000,242.000,5.000,0
"04/02/08","14:03:13",23642.000,"cc",28288.643,6.00,6,0.100,20681.000,0.200,1470.000,0.300,562.000,0.500,664.000,1.000,265.000,5.000,0
"04/02/08","14:03:19",23372.000,"cc",28355.250,6.00,6,0.100,20568.000,0.200,1414.000,0.300,549.000,0.500,604.000,1.000,237.000,5.000,0
"04/02/08","14:03:25",23554.000,"cc",28304.971,6.00,6,0.100,20582.000,0.200,1464.000,0.300,581.000,0.500,696.000,1.000,231.000,5.000,0
"04/02/08","14:03:31",23479.000,"cc",28373.971,6.00,6,0.100,20428.000,0.200,1489.000,0.300,598.000,0.500,723.000,1.000,241.000,5.000,0
"04/02/08","14:03:37",23629.000,"cc",28268.512,6.00,6,0.100,20522.000,0.200,1565.000,0.300,591.000,0.500,699.000,1.000,252.000,5.000,0
"04/02/08","14:03:43",23679.000,"cc",28333.695,6.00,6,0.100,20547.000,0.200,1535.000,0.300,643.000,0.500,690.000,1.000,264.000,5.000,0
"04/02/08","14:03:49",23332.000,"cc",28303.131,6.00,6,0.100,20224.000,0.200,1527.000,0.300,602.000,0.500,723.000,1.000,256.000,5.000,0
"04/02/08","14:03:55",23350.000,"cc",28337.691,6.00,6,0.100,20320.000,0.200,1471.000,0.300,628.000,0.500,674.000,1.000,257.000,5.000,0
"04/02/08","14:04:01",22879.000,"cc",28373.270,6.00,6,0.100,19962.000,0.200,1419.000,0.300,617.000,0.500,638.000,1.000,243.000,5.000,0
"04/02/08","14:04:07",22995.000,"cc",28326.152,6.00,6,0.100,19968.000,0.200,1469.000,0.300,613.000,0.500,693.000,1.000,252.000,5.000,0
"04/02/08","14:04:13",23572.000,"cc",28310.768,6.00,6,0.100,20370.000,0.200,1594.000,0.300,639.000,0.500,684.000,1.000,285.000,5.000,0
"04/02/08","14:04:19",23263.000,"cc",28274.867,6.00,6,0.100,20221.000,0.200,1487.000,0.300,590.000,0.500,687.000,1.000,278.000,5.000,0
"04/02/08","14:04:25",23269.000,"cc",28337.147,6.00,6,0.100,20156.000,0.200,1559.000,0.300,576.000,0.500,705.000,1.000,273.000,5.000,0
"04/02/08","14:04:31",22708.000,"cc",28309.090,6.00,6,0.100,19887.000,0.200,1377.000,0.300,578.000,0.500,632.000,1.000,234.000,5.000,0
"04/02/08","14:04:37",23450.000,"cc",28279.111,6.00,6,0.100,20359.000,0.200,1464.000,0.300,659.000,0.500,712.000,1.000,256.000,5.000,0
"04/02/08","14:04:43",23450.000,"cc",28316.410,6.00,6,0.100,20124.000,0.200,1580.000,0.300,672.000,0.500,785.000,1.000,289.000,5.000,0
"04/02/08","14:04:49",23749.000,"cc",28345.545,6.00,6,0.100,20390.000,0.200,1625.000,0.300,706.000,0.500,750.000,1.000,278.000,5.000,0
"04/02/08","14:04:55",23715.000,"cc",28314.178,6.00,6,0.100,20362.000,0.200,1615.000,0.300,710.000,0.500,774.000,1.000,254.000,5.000,0
"04/02/08","14:05:01",23667.000,"cc",28342.770,6.00,6,0.100,20500.000,0.200,1533.000,0.300,653.000,0.500,706.000,1.000,275.000,5.000,0
"04/02/08","14:05:07",23656.000,"cc",28264.315,6.00,6,0.100,20761.000,0.200,1462.000,0.300,582.000,0.500,625.000,1.000,226.000,5.000,0
"04/02/08","14:05:13",23726.000,"cc",28344.072,6.00,6,0.100,20867.000,0.200,1462.000,0.300,543.000,0.500,632.000,1.000,222.000,5.000,0
"04/02/08","14:05:19",23295.000,"cc",28284.742,6.00,6,0.100,20543.000,0.200,1492.000,0.300,507.000,0.500,559.000,1.000,194.000,5.000,0
"04/02/08","14:05:25",23537.000,"cc",28308.568,6.00,6,0.100,20690.000,0.200,1498.000,0.300,521.000,0.500,596.000,1.000,232.000,5.000,0
"04/02/08","14:05:31",23744.000,"cc",28306.729,6.00,6,0.100,20821.000,0.200,1497.000,0.300,568.000,0.500,615.000,1.000,243.000,5.000,0
"04/02/08","14:05:37",23772.000,"cc",28377.754,6.00,6,0.100,20653.000,0.200,1595.000,0.300,638.000,0.500,651.000,1.000,235.000,5.000,0
"04/02/08","14:05:43",23549.000,"cc",28369.043,6.00,6,0.100,20453.000,0.200,1494.000,0.300,627.000,0.500,731.000,1.000,244.000,5.000,0
"04/02/08","14:05:49",23701.000,"cc",28325.395,6.00,6,0.100,20547.000,0.200,1592.000,0.300,616.000,0.500,688.000,1.000,258.000,5.000,0
"04/02/08","14:05:55",23604.000,"cc",28279.754,6.00,6,0.100,20492.000,0.200,1533.000,0.300,597.000,0.500,729.000,1.000,253.000,5.000,0
"04/02/08","14:06:01",23990.000,"cc",28321.522,6.00,6,0.100,20753.000,0.200,1606.000,0.300,638.000,0.500,746.000,1.000,247.000,5.000,0
"04/02/08","14:06:07",23613.000,"cc",28313.297,6.00,6,0.100,20582.000,0.200,1460.000,0.300,649.000,0.500,684.000,1.000,238.000,5.000,0
"04/02/08","14:06:13",23514.000,"cc",28305.818,6.00,6,0.100,20632.000,0.200,1560.000,0.300,535.000,0.500,583.000,1.000,204.000,5.000,0
"04/02/08","14:06:19",23633.000,"cc",28336.729,6.00,6,0.100,20753.000,0.200,1514.000,0.300,548.000,0.500,580.000,1.000,238.000,5.000,0
"04/02/08","14:06:25",23460.000,"cc",28289.889,6.00,6,0.100,20600.000,0.200,1511.000,0.300,513.000,0.500,625.000,1.000,211.000,5.000,0
"04/02/08","14:06:31",23324.000,"cc",28309.691,6.00,6,0.100,20604.000,0.200,1408.000,0.300,532.000,0.500,566.000,1.000,214.000,5.000,0
"04/02/08","14:06:37",23767.000,"cc",28340.365,6.00,6,0.100,20862.000,0.200,1528.000,0.300,543.000,0.500,621.000,1.000,213.000,5.000,0
"04/02/08","14:06:43",24173.000,"cc",28335.477,6.00,6,0.100,21396.000,0.200,1463.000,0.300,496.000,0.500,606.000,1.000,212.000,5.000,0
"04/02/08","14:06:49",24186.000,"cc",28286.928,6.00,6,0.100,21317.000,0.200,1512.000,0.300,532.000,0.500,612.000,1.000,213.000,5.000,0
"04/02/08","14:06:55",24779.000,"cc",28322.373,6.00,6,0.100,21955.000,0.200,1496.000,0.300,533.000,0.500,598.000,1.000,197.000,5.000,0
"04/02/08","14:07:01",24576.000,"cc",28322.379,6.00,6,0.100,21679.000,0.200,1526.000,0.300,535.000,0.500,625.000,1.000,211.000,5.000,0
"04/02/08","14:07:07",24093.000,"cc",28316.451,6.00,6,0.100,21249.000,0.200,1528.000,0.300,506.000,0.500,595.000,1.000,215.000,5.000,0
"04/02/08","14:07:13",23775.000,"cc",28291.787,6.00,6,0.100,21025.000,0.200,1455.000,0.300,509.000,0.500,565.000,1.000,221.000,5.000,0
"04/02/08","14:07:19",23919.000,"cc",28325.703,6.00,6,0.100,21060.000,0.200,1510.000,0.300,530.000,0.500,608.000,1.000,211.000,5.000,0
"04/02/08","14:07:25",24222.000,"cc",28286.795,6.00,6,0.100,21347.000,0.200,1500.000,0.300,516.000,0.500,640.000,1.000,219.000,5.000,0
"04/02/08","14:07:31",23855.000,"cc",28396.371,6.00,6,0.100,21040.000,0.200,1530.000,0.300,475.000,0.500,599.000,1.000,211.000,5.000,0
"04/02/08","14:07:37",23701.000,"cc",28325.449,6.00,6,0.100,20916.000,0.200,1443.000,0.300,503.000,0.500,611.000,1.000,228.000,5.000,0
"04/02/08","14:07:43",24096.000,"cc",28252.076,6.00,6,0.100,21285.000,0.200,1480.000,0.300,551.000,0.500,567.000,1.000,213.000,5.000,0
"04/02/08","14:07:49",23975.000,"cc",28295.289,6.00,6,0.100,20903.000,0.200,1623.000,0.300,593.000,0.500,617.000,1.000,239.000,5.000,0
"04/02/08","14:07:55",23838.000,"cc",28372.127,6.00,6,0.100,20946.000,0.200,1497.000,0.300,553.000,0.500,629.000,1.000,213.000,5.000,0
"04/02/08","14:08:01",24050.000,"cc",28320.955,6.00,6,0.100,21020.000,0.200,1588.000,0.300,560.000,0.500,642.000,1.000,240.000,5.000,0
"04/02/08","14:08:07",24083.000,"cc",28253.096,6.00,6,0.100,20972.000,0.200,1663.000,0.300,590.000,0.500,629.000,1.000,229.000,5.000,0
"04/02/08","14:08:13",24052.000,"cc",28357.908,6.00,6,0.100,20873.000,0.200,1662.000,0.300,595.000,0.500,678.000,1.000,244.000,5.000,0
"04/02/08","14:08:19",23944.000,"cc",28322.691,6.00,6,0.100,20815.000,0.200,1579.000,0.300,624.000,0.500,658.000,1.000,268.000,5.000,0
"04/02/08","14:08:25",23688.000,"cc",28325.102,6.00,6,0.100,20718.000,0.200,1522.000,0.300,558.000,0.500,654.000,1.000,236.000,5.000,0
"04/02/08","14:08:31",24113.000,"cc",28290.815,6.00,6,0.100,20936.000,0.200,1622.000,0.300,594.000,0.500,706.000,1.000,255.000,5.000,0
"04/02/08","14:08:37",24258.000,"cc",28332.947,6.00,6,0.100,21114.000,0.200,1620.000,0.300,596.000,0.500,671.000,1.000,257.000,5.000,0
"04/02/08","14:08:43",24419.000,"cc",28339.115,6.00,6,0.100,21282.000,0.200,1561.000,0.300,622.000,0.500,683.000,1.000,271.000,5.000,0
"04/02/08","14:08:49",24372.000,"cc",28318.084,6.00,6,0.100,21160.000,0.200,1673.000,0.300,608.000,0.500,709.000,1.000,222.000,5.000,0
"04/02/08","14:08:55",24802.000,"cc",28290.945,6.00,6,0.100,21592.000,0.200,1665.000,0.300,606.000,0.500,700.000,1.000,239.000,5.000,0
"04/02/08","14:09:01",24453.000,"cc",28275.527,6.00,6,0.100,21145.000,0.200,1675.000,0.300,615.000,0.500,758.000,1.000,260.000,5.000,0
"04/02/08","14:09:07",25161.000,"cc",28371.820,6.00,6,0.100,21844.000,0.200,1671.000,0.300,636.000,0.500,740.000,1.000,270.000,5.000,0
"04/02/08","14:09:13",25091.000,"cc",28346.139,6.00,6,0.100,21836.000,0.200,1688.000,0.300,577.000,0.500,703.000,1.000,287.000,5.000,0
"04/02/08","14:09:19",24735.000,"cc",28289.088,6.00,6,0.100,21605.000,0.200,1598.000,0.300,625.000,0.500,667.000,1.000,240.000,5.000,0
"04/02/08","14:09:25",25216.000,"cc",28271.773,6.00,6,0.100,21947.000,0.200,1637.000,0.300,647.000,0.500,741.000,1.000,244.000,5.000,0
"04/02/08","14:09:31",24684.000,"cc",28336.734,6.00,6,0.100,21776.000,0.200,1556.000,0.300,556.000,0.500,606.000,1.000,190.000,5.000,0
"04/02/08","14:09:37",24395.000,"cc",28358.893,6.00,6,0.100,21518.000,0.200,1515.000,0.300,533.000,0.500,598.000,1.000,231.000,5.000,0
"04/02/08","14:09:43",24338.000,"cc",28338.936,6.00,6,0.100,21487.000,0.200,1555.000,0.300,507.000,0.500,581.000,1.000,208.000,5.000,0
"04/02/08","14:09:49",24221.000,"cc",28283.262,6.00,6,0.100,21273.000,0.200,1544.000,0.300,523.000,0.500,652.000,1.000,229.000,5.000,0
"04/02/08","14:09:55",24328.000,"cc",28321.834,6.00,6,0.100,21365.000,0.200,1610.000,0.300,538.000,0.500,590.000,1.000,225.000,5.000,0
"04/02/08","14:10:01",24315.000,"cc",28263.697,6.00,6,0.100,21298.000,0.200,1591.000,0.300,542.000,0.500,660.000,1.000,224.000,5.000,0
"04/02/08","14:10:07",24427.000,"cc",28335.000,6.00,6,0.100,21361.000,0.200,1583.000,0.300,600.000,0.500,641.000,1.000,242.000,5.000,0
"04/02/08","14:10:13",24695.000,"cc",28276.576,6.00,6,0.100,21717.000,0.200,1549.000,0.300,581.000,0.500,611.000,1.000,237.000,5.000,0
"04/02/08","14:10:19",24742.000,"cc",28372.928,6.00,6,0.100,21615.000,0.200,1617.000,0.300,623.000,0.500,653.000,1.000,234.000,5.000,0
"04/02/08","14:10:25",24772.000,"cc",28318.641,6.00,6,0.100,21675.000,0.200,1617.000,0.300,573.000,0.500,653.000,1.000,254.000,5.000,0
"04/02/08","14:10:31",24849.000,"cc",28325.639,6.00,6,0.100,21674.000,0.200,1680.000,0.300,580.000,0.500,700.000,1.000,215.000,5.000,0
"04/02/08","14:10:37",24697.000,"cc",28268.184,6.00,6,0.100,21609.000,0.200,1605.000,0.300,582.000,0.500,644.000,1.000,257.000,5.000,0
"04/02/08","14:10:43",24527.000,"cc",28314.119,6.00,6,0.100,21642.000,0.200,1524.000,0.300,535.000,0.500,599.000,1.000,227.000,5.000,0
"04/02/08","14:10:49",24190.000,"cc",28338.856,6.00,6,0.100,21299.000,0.200,1466.000,0.300,591.000,0.500,601.000,1.000,233.000,5.000,0
"04/02/08","14:10:55",24145.000,"cc",28379.195,6.00,6,0.100,21212.000,0.200,1548.000,0.300,566.000,0.500,578.000,1.000,241.000,5.000,0
"04/02/08","14:11:01",24425.000,"cc",28315.260,6.00,6,0.100,21420.000,0.200,1548.000,0.300,582.000,0.500,651.000,1.000,224.000,5.000,0
"04/02/08","14:11:07",23930.000,"cc",28337.320,6.00,6,0.100,21029.000,0.200,1584.000,0.300,524.000,0.500,582.000,1.000,211.000,5.000,0
"04/02/08","14:11:13",23873.000,"cc",28281.693,6.00,6,0.100,20892.000,0.200,1534.000,0.300,575.000,0.500,656.000,1.000,216.000,5.000,0
"04/02/08","14:11:19",24332.000,"cc",28307.176,6.00,6,0.100,21356.000,0.200,1546.000,0.300,567.000,0.500,638.000,1.000,225.000,5.000,0
"04/02/08","14:11:25",24617.000,"cc",28262.943,6.00,6,0.100,21463.000,0.200,1663.000,0.300,593.000,0.500,684.000,1.000,214.000,5.000,0
"04/02/08","14:11:31",24119.000,"cc",28355.984,6.00,6,0.100,20888.000,0.200,1623.000,0.300,623.000,0.500,705.000,1.000,280.000,5.000,0
"04/02/08","14:11:37",24617.000,"cc",28344.545,6.00,6,0.100,21197.000,0.200,1768.000,0.300,661.000,0.500,723.000,1.000,268.000,5.000,0
"04/02/08","14:11:43",23939.000,"cc",28331.238,6.00,6,0.100,20999.000,0.200,1512.000,0.300,535.000,0.500,674.000,1.000,219.000,5.000,0
"04/02/08","14:11:49",23931.000,"cc",28308.486,6.00,6,0.100,20793.000,0.200,1562.000,0.300,631.000,0.500,709.000,1.000,236.000,5.000,0
"04/02/08","14:11:55",23907.000,"cc",28314.418,6.00,6,0.100,20810.000,0.200,1597.000,0.300,546.000,0.500,688.000,1.000,266.000,5.000,0
"04/02/08","14:12:01",23243.000,"cc",28286.607,6.00,6,0.100,20283.000,0.200,1478.000,0.300,595.000,0.500,669.000,1.000,218.000,5.000,0
"04/02/08","14:12:07",23432.000,"cc",28353.027,6.00,6,0.100,20224.000,0.200,1625.000,0.300,611.000,0.500,688.000,1.000,284.000,5.000,0
"04/02/08","14:12:13",23752.000,"cc",28348.141,6.00,6,0.100,20623.000,0.200,1490.000,0.300,627.000,0.500,740.000,1.000,272.000,5.000,0
"04/02/08","14:12:19",23458.000,"cc",28362.096,6.00,6,0.100,20283.000,0.200,1526.000,0.300,660.000,0.500,730.000,1.000,259.000,5.000,0
"04/02/08","14:12:25",23792.000,"cc",28319.053,6.00,6,0.100,20485.000,0.200,1564.000,0.300,689.000,0.500,766.000,1.000,288.000,5.000,0
"04/02/08","14:12:31",22977.000,"cc",28306.795,6.00,6,0.100,19961.000,0.200,1479.000,0.300,593.000,0.500,705.000,1.000,239.000,5.000,0
"04/02/08","14:12:37",23074.000,"cc",28314.752,6.00,6,0.100,20002.000,0.200,1559.000,0.300,587.000,0.500,682.000,1.000,244.000,5.000,0
"04/02/08","14:12:43",23114.000,"cc",28318.193,6.00,6,0.100,20050.000,0.200,1510.000,0.300,590.000,0.500,729.000,1.000,235.000,5.000,0
"04/02/08","14:12:49",22902.000,"cc",28299.389,6.00,6,0.100,19948.000,0.200,1472.000,0.300,531.000,0.500,701.000,1.000,250.000,5.000,0
"04/02/08","14:12:55",22727.000,"cc",28326.606,6.00,6,0.100,19965.000,0.200,1360.000,0.300,526.000,0.500,635.000,1.000,241.000,5.000,0
"04/02/08","14:13:01",22693.000,"cc",28353.051,6.00,6,0.100,19929.000,0.200,1425.000,0.300,529.000,0.500,568.000,1.000,242.000,5.000,0
"04/02/08","14:13:07",23041.000,"cc",28312.223,6.00,6,0.100,20257.000,0.200,1436.000,0.300,545.000,0.500,592.000,1.000,211.000,5.000,0
"04/02/08","14:13:13",22950.000,"cc",28265.176,6.00,6,0.100,20158.000,0.200,1500.000,0.300,501.000,0.500,570.000,1.000,221.000,5.000,0
"04/02/08","14:13:19",23067.000,"cc",28272.420,6.00,6,0.100,20313.000,0.200,1500.000,0.300,503.000,0.500,555.000,1.000,196.000,5.000,0
"04/02/08","14:13:25",22953.000,"cc",28376.606,6.00,6,0.100,20197.000,0.200,1462.000,0.300,493.000,0.500,594.000,1.000,207.000,5.000,0
"04/02/08","14:13:31",23005.000,"cc",28345.443,6.00,6,0.100,20091.000,0.200,1498.000,0.300,553.000,0.500,638.000,1.000,225.000,5.000,0
"04/02/08","14:13:37",22930.000,"cc",28300.398,6.00,6,0.100,20090.000,0.200,1501.000,0.300,528.000,0.500,600.000,1.000,211.000,5.000,0
"04/02/08","14:13:43",23113.000,"cc",28299.957,6.00,6,0.100,19967.000,0.200,1591.000,0.300,604.000,0.500,691.000,1.000,260.000,5.000,0
"04/02/08","14:13:49",22958.000,"cc",28317.203,6.00,6,0.100,20068.000,0.200,1463.000,0.300,559.000,0.500,665.000,1.000,203.000,5.000,0
"04/02/08","14:13:55",23197.000,"cc",28324.293,6.00,6,0.100,20192.000,0.200,1543.000,0.300,616.000,0.500,620.000,1.000,226.000,5.000,0
"04/02/08","14:14:01",23444.000,"cc",28330.340,6.00,6,0.100,20347.000,0.200,1520.000,0.300,661.000,0.500,668.000,1.000,248.000,5.000,0
"04/02/08","14:14:07",23288.000,"cc",28272.299,6.00,6,0.100,20258.000,0.200,1561.000,0.300,599.000,0.500,646.000,1.000,224.000,5.000,0
"04/02/08","14:14:13",22799.000,"cc",28288.369,6.00,6,0.100,20078.000,0.200,1445.000,0.300,517.000,0.500,565.000,1.000,194.000,5.000,0
"04/02/08","14:14:19",22805.000,"cc",28325.184,6.00,6,0.100,20284.000,0.200,1377.000,0.300,439.000,0.500,518.000,1.000,187.000,5.000,0
"04/02/08","14:14:25",22587.000,"cc",28335.408,6.00,6,0.100,20025.000,0.200,1433.000,0.300,437.000,0.500,503.000,1.000,189.000,5.000,0
"04/02/08","14:14:31",22660.000,"cc",28338.777,6.00,6,0.100,20173.000,0.200,1394.000,0.300,448.000,0.500,486.000,1.000,159.000,5.000,0
"04/02/08","14:14:37",22926.000,"cc",28358.246,6.00,6,0.100,20244.000,0.200,1375.000,0.300,492.000,0.500,586.000,1.000,229.000,5.000,0
"04/02/08","14:14:43",22297.000,"cc",28345.844,6.00,6,0.100,19628.000,0.200,1438.000,0.300,502.000,0.500,534.000,1.000,195.000,5.000,0
"04/02/08","14:14:49",21831.000,"cc",28312.436,6.00,6,0.100,19380.000,0.200,1336.000,0.300,487.000,0.500,478.000,1.000,150.000,5.000,0
"04/02/08","14:14:55",22017.000,"cc",28280.033,6.00,6,0.100,19407.000,0.200,1464.000,0.300,481.000,0.500,498.000,1.000,167.000,5.000,0
"04/02/08","14:15:01",21890.000,"cc",28276.133,6.00,6,0.100,19529.000,0.200,1288.000,0.300,434.000,0.500,493.000,1.000,146.000,5.000,0
"04/02/08","14:15:07",21984.000,"cc",28349.369,6.00,6,0.100,19511.000,0.200,1384.000,0.300,445.000,0.500,487.000,1.000,157.000,5.000,0
"04/02/08","14:15:13",21770.000,"cc",28340.967,6.00,6,0.100,19143.000,0.200,1394.000,0.300,506.000,0.500,531.000,1.000,196.000,5.000,0
"04/02/08","14:15:19",21533.000,"cc",28317.438,6.00,6,0.100,19068.000,0.200,1326.000,0.300,453.000,0.500,511.000,1.000,175.000,5.000,0
"04/02/08","14:15:25",21621.000,"cc",28326.188,6.00,6,0.100,19042.000,0.200,1325.000,0.300,496.000,0.500,568.000,1.000,190.000,5.000,0
"04/02/08","14:15:31",22133.000,"cc",28268.961,6.00,6,0.100,19314.000,0.200,1467.000,0.300,514.000,0.500,619.000,1.000,219.000,5.000,0
"04/02/08","14:15:37",21475.000,"cc",28301.098,6.00,6,0.100,19034.000,0.200,1295.000,0.300,485.000,0.500,509.000,1.000,152.000,5.000,0
"04/02/08","14:15:43",21494.000,"cc",28357.725,6.00,6,0.100,19049.000,0.200,1308.000,0.300,456.000,0.500,487.000,1.000,194.000,5.000,0
"04/02/08","14:15:49",21945.000,"cc",28297.215,6.00,6,0.100,19460.000,0.200,1325.000,0.300,443.000,0.500,530.000,1.000,187.000,5.000,0
"04/02/08","14:15:55",21931.000,"cc",28398.832,6.00,6,0.100,19487.000,0.200,1344.000,0.300,398.000,0.500,528.000,1.000,174.000,5.000,0
"04/02/08","14:16:01",22181.000,"cc",28297.510,6.00,6,0.100,19721.000,0.200,1351.000,0.300,423.000,0.500,530.000,1.000,156.000,5.000,0
"04/02/08","14:16:07",22211.000,"cc",28294.234,6.00,6,0.100,19756.000,0.200,1344.000,0.300,457.000,0.500,500.000,1.000,154.000,5.000,0
"04/02/08","14:16:13",22584.000,"cc",28301.289,6.00,6,0.100,20037.000,0.200,1390.000,0.300,458.000,0.500,515.000,1.000,184.000,5.000,0
"04/02/08","14:16:19",22700.000,"cc",28289.283,6.00,6,0.100,20163.000,0.200,1355.000,0.300,472.000,0.500,539.000,1.000,171.000,5.000,0
"04/02/08","14:16:25",22458.000,"cc",28308.740,6.00,6,0.100,19934.000,0.200,1358.000,0.300,474.000,0.500,499.000,1.000,193.000,5.000,0
"04/02/08","14:16:31",22070.000,"cc",28345.279,6.00,6,0.100,19607.000,0.200,1340.000,0.300,415.000,0.500,538.000,1.000,170.000,5.000,0
"04/02/08","14:16:37",21990.000,"cc",28348.330,6.00,6,0.100,19555.000,0.200,1348.000,0.300,426.000,0.500,467.000,1.000,194.000,5.000,0